STARLINK-32041 (60202 NORAD) Tracking and Keplerian Element Data

This shows tracking and keplerian element data for the satellite.

Feedback or suggestion? Click here.




ElementValue
Catalog60202
NameSTARLINK-32041
Epoch Orbit1682
Epoch Day286.20790263
Epoch Year2024
RAAN191.5233
Inclination53.1582
Eccentricity8.51E-05
Argument of Perigee97.3026
Mean Anonmoly262.8076
Mean Motion15.39629244
Decay Rate0.00119472
L11 60202U 24124V 24286.20790263 .00119472 00000+0 29493-2 0 9996
L22 60202 53.1582 191.5233 0000851 97.3026 262.8076 15.39629244 16824



Live tracking and technical data element details for STARLINK-32041 (NORAD 60202). STARLINK-32041 can be tracked NOW for your location showing map with azimuth and elevation plus other details from your city location.







IsCatalogInMostPopularTable: catalog: 60202, numindb: 11
Update: records affected: 1



GetName: 60202 STARLINK-32041

Hit Count: updated at: Thu, 23 Jan 2025 15:08:07 GMT